User: anonymous   Login
Location: Unspecified
(0.0000°N, 0.0000°E)
Time: 00:07:09
(UTC+00:00)
Language:

STARLINK-30252 - Orbit

View from above orbital plane
View from above orbital plane
View from above satellite
View from above satellite

Ground track
Ground track

The orbit is defined by the following mean orbital elements,

1 57607U          26145.26611507 +.00000000 +00000-0 +40303-4 0 00008
2 57607  43.0032 354.1744 0001192 278.3839  81.6878 15.27578001    04
Epoch (UTC): 25 May 2026 06:23:12
Eccentricity: 0.0001192
inclination: 43.0032°
perigee height: 482 km
apogee height: 484 km
right ascension of ascending node: 354.1744°
argument of perigee: 278.3839°
revolutions per day: 15.27578001
mean anomaly at epoch: 81.6878°

The dashed part of the orbit path shows where the satellite is in the earth's shadow,  

DLR